Weather Roundup
Issued by NWS Chicago, IL

Home | Current Version | Previous Version | Graphics & Text | Print | Product List | Glossary On
Versions: 1 2 3 4 5 6 7 8 9 10 11 12 13 14 15 16 17 18 19 20 21 22 23 24 25 26 27 28 29 30 31 32 33 34 35 36 37 38 39 40 41 42 43 44 45 46 47 48 49 50
000
NZUS59 KLOT 010503
HRRLOT

CHICAGO AREA WEATHER ROUNDUP
NATIONAL WEATHER SERVICE CHICAGO/ROMEOVILLE IL
1200 AM CDT SUN MAY 01 2016

NOTE: "FAIR" INDICATES FEW OR NO CLOUDS BELOW 12,000 FEET WITH NO
SIGNIFICANT WEATHER AND/OR OBSTRUCTIONS TO VISIBILITY.

* THESE STATIONS ARE NOT UNDER NWS QUALITY CONTROL. THEY ALSO MAY NOT
  REPORT WEATHER SUCH AS PRECIPITATION OR FOG.

ILZ005-006-012>014-019>023-010600-
NORTHEAST ILLINOIS

CITY           SKY/WX    TMP DP  RH WIND       PRES   REMARKS
OHARE          CLOUDY    45  44  97 NE15      29.91F FOG
MIDWAY         DRIZZLE   47  44  90 NE17      29.91S FOG
AURORA         CLOUDY    47  45  93 NE13G22   29.90F FOG
LANSING*       RAIN      47  47  99 NE12      29.90S
WAUKEGAN       CLOUDY    43  43 100 NE13G20   29.94R FOG
DUPAGE AIRPORT CLOUDY    45  43  93 NE17      29.90F FOG
WHEELING       CLOUDY    45  43  93 NE13G23   29.93F FOG
MORRIS*        CLOUDY    47  46  95 NE9       29.88S FOG
$$

WIZ051-052-058>065-066-070>072-010600-
SOUTHEAST WISCONSIN

CITY           SKY/WX    TMP DP  RH WIND       PRES   REMARKS
MILWAUKEE      CLOUDY    43  41  93 NE15      29.97S
KENOSHA*       CLOUDY    45  42  89 NE20      29.95S FOG
RACINE*        CLOUDY    44  41  89 NE17      29.98S
BURLINGTON     CLOUDY    43  43  98 E10G18    29.96S FOG
WAUKESHA       CLOUDY    43  41  93 NE12      29.99R
$$

INZ001>003-010>013-019-020-010600-
NORTHWEST INDIANA

CITY           SKY/WX    TMP DP  RH WIND       PRES   REMARKS
GARY*          CLOUDY    47  47 100 NE9       29.91R FOG
MICHIGAN CITY* NOT AVBL
RENSSELAER*    NOT AVBL
VALPARAISO     CLOUDY    48  47  96 NE10      29.90R FOG
$$

LMZ740>746-010600-
SOUTHERN LAKE MICHIGAN

STATION/POSITION TIME  SKY/WX   TEMP WIND        PRES    VSBY
                                AIR  DIR/SP/G
                 (UTC)          (F)  (DEG/KT/KT) (MB)    (MI)
HARRISON CRIB    0400            44   40/ 21/ 23   N/A
BURNHAM HARBOR   0500            44   30/ 14/ 18   N/A
CALUMET HARBOR   0400            44   30/ 13/ 18 1012.2F
BURNS HARBOR     0410            47   40/ 15/ 19 1012.5F
MICHIGAN CITY    0400            47   30/ 12/ 13   N/A
$$

ABBREVIATIONS USED IN REMARKS
   TC - TEMPERATURE IN CELSIUS
  WCI - WIND CHILL INDEX
   HX - HEAT INDEX
  VSB - VISIBILITY
$$




USA.gov is the U.S. government's official web portal to all federal, state and local government web resources and services.